Time,TemperatureF,DewpointF,PressureIn,WindDirection,WindDirectionDegrees,WindSpeedMPH,WindSpeedGustMPH,Humidity,HourlyPrecipIn,Conditions,Clouds,dailyrainin,SoftwareType,DateUTC
2013-03-18 00:05:00,158.0,0.0,29.86,SE,133,10.0,10.0,0,0.00,,---,0.00,VWS V14.00,2013-03-18 05:05:00,
2013-03-18 00:15:00,158.0,0.0,29.87,SE,127,6.0,10.0,0,0.00,,---,0.00,VWS V14.00,2013-03-18 05:15:00,
2013-03-18 00:25:00,158.0,0.0,29.86,SE,130,6.0,10.0,0,0.00,,---,0.00,VWS V14.00,2013-03-18 05:25:00,
2013-03-18 00:35:00,158.0,0.0,29.86,SE,129,9.0,11.0,0,0.00,,---,0.00,VWS V14.00,2013-03-18 05:35:00,
2013-03-18 00:45:00,158.0,0.0,29.86,SE,126,7.0,10.0,0,0.00,,---,0.00,VWS V14.00,2013-03-18 05:45:00,
2013-03-18 00:55:00,158.0,0.0,29.86,SE,127,10.0,11.0,0,0.00,,---,0.00,VWS V14.00,2013-03-18 05:55:00,
2013-03-18 01:05:00,158.0,0.0,29.86,SE,128,10.0,11.0,0,0.00,,---,0.00,VWS V14.00,2013-03-18 06:05:00,
2013-03-18 01:15:00,158.0,0.0,29.86,SE,130,11.0,11.0,0,0.00,,---,0.00,VWS V14.00,2013-03-18 06:15:00,
2013-03-18 01:25:00,158.0,0.0,29.86,SE,134,10.0,12.0,0,0.00,,---,0.00,VWS V14.00,2013-03-18 06:25:00,
2013-03-18 01:35:00,158.0,0.0,29.84,ESE,121,8.0,13.0,0,0.00,,---,0.00,VWS V14.00,2013-03-18 06:35:00,
2013-03-18 01:45:00,158.0,0.0,29.85,SE,124,6.0,10.0,0,0.00,,---,0.00,VWS V14.00,2013-03-18 06:45:00,
2013-03-18 01:55:00,158.0,0.0,29.85,SE,125,7.0,9.0,0,0.00,,---,0.00,VWS V14.00,2013-03-18 06:55:00,
2013-03-18 02:05:00,158.0,0.0,29.85,ESE,119,10.0,10.0,0,0.00,,---,0.00,VWS V14.00,2013-03-18 07:05:00,
2013-03-18 02:15:00,158.0,0.0,29.85,ESE,121,6.0,10.0,0,0.00,,---,0.00,VWS V14.00,2013-03-18 07:15:00,
2013-03-18 02:25:00,158.0,0.0,29.85,SE,125,7.0,9.0,0,0.00,,---,0.00,VWS V14.00,2013-03-18 07:25:00,
2013-03-18 02:35:00,158.0,0.0,29.85,ESE,122,7.0,8.0,0,0.00,,---,0.00,VWS V14.00,2013-03-18 07:35:00,
2013-03-18 02:45:00,158.0,0.0,29.85,SE,128,7.0,10.0,0,0.00,,---,0.00,VWS V14.00,2013-03-18 07:45:00,
2013-03-18 02:55:00,158.0,0.0,29.85,SE,126,5.0,9.0,0,0.00,,---,0.00,VWS V14.00,2013-03-18 07:55:00,
2013-03-18 03:05:00,158.0,0.0,29.84,ESE,122,7.0,9.0,0,0.00,,---,0.00,VWS V14.00,2013-03-18 08:05:00,
2013-03-18 03:15:00,158.0,0.0,29.84,SE,126,7.0,9.0,0,0.00,,---,0.00,VWS V14.00,2013-03-18 08:15:00,
2013-03-18 03:25:00,158.0,0.0,29.84,SE,133,9.0,10.0,0,0.00,,---,0.00,VWS V14.00,2013-03-18 08:25:00,
2013-03-18 03:35:00,158.0,0.0,29.84,SE,134,9.0,10.0,0,0.00,,---,0.00,VWS V14.00,2013-03-18 08:35:00,
2013-03-18 03:45:00,158.0,0.0,29.84,SE,132,8.0,11.0,0,0.00,,---,0.00,VWS V14.00,2013-03-18 08:45:00,
2013-03-18 03:55:00,158.0,0.0,29.83,SE,133,9.0,11.0,0,0.00,,---,0.00,VWS V14.00,2013-03-18 08:55:00,
2013-03-18 04:05:00,158.0,0.0,29.83,SE,128,10.0,11.0,0,0.00,,---,0.00,VWS V14.00,2013-03-18 09:05:00,
2013-03-18 04:15:00,158.0,0.0,29.84,ESE,123,11.0,14.0,0,0.00,,---,0.00,VWS V14.00,2013-03-18 09:15:00,
2013-03-18 04:25:00,158.0,0.0,29.83,ESE,115,13.0,14.0,0,0.00,,---,0.00,VWS V14.00,2013-03-18 09:25:00,
2013-03-18 04:35:00,158.0,0.0,29.83,ESE,113,12.0,14.0,0,0.00,,---,0.00,VWS V14.00,2013-03-18 09:35:00,
2013-03-18 04:45:00,158.0,0.0,29.84,ESE,111,15.0,15.0,0,0.00,,---,0.00,VWS V14.00,2013-03-18 09:45:00,
2013-03-18 04:55:00,158.0,0.0,29.84,ESE,120,12.0,15.0,0,0.00,,---,0.00,VWS V14.00,2013-03-18 09:55:00,
2013-03-18 05:05:00,158.0,0.0,29.84,ESE,119,10.0,15.0,0,0.00,,---,0.00,VWS V14.00,2013-03-18 10:05:00,
2013-03-18 05:15:00,158.0,0.0,29.85,ESE,119,11.0,14.0,0,0.00,,---,0.00,VWS V14.00,2013-03-18 10:15:00,
2013-03-18 05:25:00,158.0,0.0,29.84,ESE,111,12.0,16.0,0,0.00,,---,0.00,VWS V14.00,2013-03-18 10:25:00,
2013-03-18 05:35:00,158.0,0.0,29.85,ESE,117,11.0,15.0,0,0.00,,---,0.00,VWS V14.00,2013-03-18 10:35:00,
2013-03-18 05:45:00,158.0,0.0,29.85,ESE,121,14.0,16.0,0,0.00,,---,0.00,VWS V14.00,2013-03-18 10:45:00,
2013-03-18 05:55:00,158.0,0.0,29.85,ESE,118,12.0,16.0,0,0.00,,---,0.00,VWS V14.00,2013-03-18 10:55:00,
2013-03-18 06:05:00,158.0,0.0,29.85,ESE,117,12.0,17.0,0,0.00,,---,0.00,VWS V14.00,2013-03-18 11:05:00,
2013-03-18 06:15:00,158.0,0.0,29.86,ESE,119,12.0,14.0,0,0.00,,---,0.00,VWS V14.00,2013-03-18 11:15:00,
2013-03-18 06:25:00,158.0,0.0,29.87,ESE,119,12.0,14.0,0,0.00,,---,0.00,VWS V14.00,2013-03-18 11:25:00,
2013-03-18 06:35:00,158.0,0.0,29.86,ESE,117,13.0,14.0,0,0.00,,---,0.00,VWS V14.00,2013-03-18 11:35:00,
2013-03-18 06:45:00,158.0,0.0,29.87,ESE,116,12.0,15.0,0,0.00,,---,0.00,VWS V14.00,2013-03-18 11:45:00,
2013-03-18 06:55:00,158.0,0.0,29.87,ESE,111,10.0,13.0,0,0.00,,---,0.00,VWS V14.00,2013-03-18 11:55:00,
2013-03-18 07:05:00,158.0,0.0,29.87,ESE,107,12.0,15.0,0,0.00,,---,0.00,VWS V14.00,2013-03-18 12:05:00,
2013-03-18 07:15:00,158.0,0.0,29.87,ESE,111,15.0,16.0,0,0.00,,---,0.00,VWS V14.00,2013-03-18 12:15:00,
2013-03-18 07:25:00,158.0,0.0,29.87,ESE,106,12.0,16.0,0,0.00,,---,0.00,VWS V14.00,2013-03-18 12:25:00,
2013-03-18 07:35:00,158.0,0.0,29.87,ESE,109,12.0,16.0,0,0.00,,---,0.00,VWS V14.00,2013-03-18 12:35:00,
2013-03-18 07:45:00,158.0,0.0,29.87,ESE,113,13.0,14.0,0,0.00,,---,0.00,VWS V14.00,2013-03-18 12:45:00,
2013-03-18 07:55:00,158.0,0.0,29.87,ESE,109,12.0,14.0,0,0.00,,---,0.00,VWS V14.00,2013-03-18 12:55:00,
2013-03-18 08:05:00,158.0,0.0,29.88,ESE,108,11.0,15.0,0,0.00,,---,0.00,VWS V14.00,2013-03-18 13:05:00,
2013-03-18 08:15:00,158.0,0.0,29.88,ESE,110,15.0,17.0,0,0.00,,---,0.00,VWS V14.00,2013-03-18 13:15:00,
2013-03-18 08:25:00,158.0,0.0,29.88,ESE,105,12.0,16.0,0,0.00,,---,0.00,VWS V14.00,2013-03-18 13:25:00,
2013-03-18 08:35:00,158.0,0.0,29.88,ESE,111,11.0,17.0,0,0.00,,---,0.00,VWS V14.00,2013-03-18 13:35:00,
2013-03-18 08:45:00,158.0,0.0,29.88,ESE,115,10.0,14.0,0,0.00,,---,0.00,VWS V14.00,2013-03-18 13:45:00,
2013-03-18 08:55:00,158.0,0.0,29.88,ESE,113,11.0,15.0,0,0.00,,---,0.00,VWS V14.00,2013-03-18 13:55:00,
2013-03-18 09:05:00,158.0,0.0,29.88,ESE,111,11.0,15.0,0,0.00,,---,0.00,VWS V14.00,2013-03-18 14:05:00,
2013-03-18 09:15:00,158.0,0.0,29.88,ESE,109,12.0,15.0,0,0.00,,---,0.00,VWS V14.00,2013-03-18 14:15:00,
2013-03-18 09:25:00,158.0,0.0,29.88,ESE,116,12.0,14.0,0,0.00,,---,0.00,VWS V14.00,2013-03-18 14:25:00,
2013-03-18 09:35:00,158.0,0.0,29.88,ESE,123,11.0,14.0,0,0.00,,---,0.00,VWS V14.00,2013-03-18 14:35:00,
2013-03-18 09:45:00,158.0,0.0,29.87,ESE,123,14.0,16.0,0,0.00,,---,0.00,VWS V14.00,2013-03-18 14:45:00,
2013-03-18 09:55:00,158.0,0.0,29.88,SE,132,15.0,16.0,0,0.00,,---,0.00,VWS V14.00,2013-03-18 14:55:00,
2013-03-18 10:05:00,158.0,0.0,29.87,SE,128,12.0,16.0,0,0.00,,---,0.00,VWS V14.00,2013-03-18 15:05:00,
2013-03-18 10:15:00,158.0,0.0,29.87,SE,128,12.0,17.0,0,0.00,,---,0.00,VWS V14.00,2013-03-18 15:15:00,
2013-03-18 10:25:00,158.0,0.0,29.87,SE,135,9.0,14.0,0,0.00,,---,0.00,VWS V14.00,2013-03-18 15:25:00,
2013-03-18 10:35:00,158.0,0.0,29.87,SE,144,12.0,15.0,0,0.00,,---,0.00,VWS V14.00,2013-03-18 15:35:00,
2013-03-18 10:45:00,158.0,0.0,29.87,SE,144,12.0,17.0,0,0.00,,---,0.00,VWS V14.00,2013-03-18 15:45:00,
2013-03-18 10:55:00,158.0,0.0,29.87,SSE,149,16.0,19.0,0,0.00,,---,0.00,VWS V14.00,2013-03-18 15:55:00,
2013-03-18 11:05:00,158.0,0.0,29.87,SE,145,15.0,17.0,0,0.00,,---,0.00,VWS V14.00,2013-03-18 16:05:00,
2013-03-18 11:15:00,158.0,0.0,29.86,SSE,155,16.0,21.0,0,0.00,,---,0.00,VWS V14.00,2013-03-18 16:15:00,
2013-03-18 11:25:00,158.0,0.0,29.86,SSE,148,17.0,19.0,0,0.00,,---,0.00,VWS V14.00,2013-03-18 16:25:00,
2013-03-18 11:35:00,158.0,0.0,29.86,SSE,161,15.0,22.0,0,0.00,,---,0.00,VWS V14.00,2013-03-18 16:35:00,
2013-03-18 11:45:00,158.0,0.0,29.86,SSE,151,14.0,18.0,0,0.00,,---,0.00,VWS V14.00,2013-03-18 16:45:00,
2013-03-18 11:55:00,158.0,0.0,29.86,SSE,157,15.0,19.0,0,0.00,,---,0.00,VWS V14.00,2013-03-18 16:55:00,
2013-03-18 12:05:00,158.0,0.0,29.86,SSE,163,13.0,18.0,0,0.00,,---,0.00,VWS V14.00,2013-03-18 17:05:00,
2013-03-18 12:15:00,158.0,0.0,29.86,SSE,164,16.0,16.0,0,0.00,,---,0.00,VWS V14.00,2013-03-18 17:15:00,
2013-03-18 12:25:00,158.0,0.0,29.86,SSE,155,14.0,16.0,0,0.00,,---,0.00,VWS V14.00,2013-03-18 17:25:00,
2013-03-18 12:35:00,158.0,0.0,29.86,SSE,155,14.0,17.0,0,0.00,,---,0.00,VWS V14.00,2013-03-18 17:35:00,
2013-03-18 12:45:00,158.0,0.0,29.86,SSE,161,16.0,17.0,0,0.00,,---,0.00,VWS V14.00,2013-03-18 17:45:00,
2013-03-18 12:55:00,158.0,0.0,29.85,SSE,150,16.0,20.0,0,0.00,,---,0.00,VWS V14.00,2013-03-18 17:55:00,
2013-03-18 13:05:00,158.0,0.0,29.85,SSE,159,14.0,19.0,0,0.00,,---,0.00,VWS V14.00,2013-03-18 18:05:00,
2013-03-18 13:15:00,158.0,0.0,29.85,SSE,163,13.0,17.0,0,0.00,,---,0.00,VWS V14.00,2013-03-18 18:15:00,
2013-03-18 13:25:00,158.0,0.0,29.84,SSE,163,14.0,17.0,0,0.00,,---,0.00,VWS V14.00,2013-03-18 18:25:00,
2013-03-18 13:35:00,158.0,0.0,29.83,SSE,157,14.0,20.0,0,0.00,,---,0.00,VWS V14.00,2013-03-18 18:35:00,
2013-03-18 13:45:00,158.0,0.0,29.83,SSE,163,13.0,16.0,0,0.00,,---,0.00,VWS V14.00,2013-03-18 18:45:00,
2013-03-18 13:55:00,158.0,0.0,29.82,SSE,160,16.0,18.0,0,0.00,,---,0.00,VWS V14.00,2013-03-18 18:55:00,
2013-03-18 14:05:00,158.0,0.0,29.81,SSE,160,14.0,17.0,0,0.00,,---,0.00,VWS V14.00,2013-03-18 19:05:00,
2013-03-18 14:15:00,158.0,0.0,29.81,SSE,162,15.0,18.0,0,0.00,,---,0.00,VWS V14.00,2013-03-18 19:15:00,
2013-03-18 14:25:00,158.0,0.0,29.81,SSE,159,15.0,16.0,0,0.00,,---,0.00,VWS V14.00,2013-03-18 19:25:00,
2013-03-18 14:35:00,158.0,0.0,29.80,SSE,161,13.0,17.0,0,0.00,,---,0.00,VWS V14.00,2013-03-18 19:35:00,
2013-03-18 14:45:00,158.0,0.0,29.80,SSE,157,15.0,16.0,0,0.00,,---,0.00,VWS V14.00,2013-03-18 19:45:00,
2013-03-18 14:55:00,158.0,0.0,29.79,SSE,160,15.0,18.0,0,0.00,,---,0.00,VWS V14.00,2013-03-18 19:55:00,
2013-03-18 15:05:00,158.0,0.0,29.79,SSE,157,14.0,18.0,0,0.00,,---,0.00,VWS V14.00,2013-03-18 20:05:00,
2013-03-18 15:15:00,158.0,0.0,29.79,SSE,156,13.0,17.0,0,0.00,,---,0.00,VWS V14.00,2013-03-18 20:15:00,
2013-03-18 15:25:00,158.0,0.0,29.79,SSE,161,12.0,16.0,0,0.00,,---,0.00,VWS V14.00,2013-03-18 20:25:00,
2013-03-18 15:35:00,158.0,0.0,29.79,SSE,160,13.0,15.0,0,0.00,,---,0.00,VWS V14.00,2013-03-18 20:35:00,
2013-03-18 15:45:00,158.0,0.0,29.78,SSE,156,13.0,15.0,0,0.00,,---,0.00,VWS V14.00,2013-03-18 20:45:00,
2013-03-18 15:55:00,158.0,0.0,29.78,SSE,155,15.0,15.0,0,0.00,,---,0.00,VWS V14.00,2013-03-18 20:55:00,
2013-03-18 16:05:00,158.0,0.0,29.78,SSE,154,13.0,15.0,0,0.00,,---,0.00,VWS V14.00,2013-03-18 21:05:00,
2013-03-18 16:15:00,158.0,0.0,29.78,SSE,153,12.0,15.0,0,0.00,,---,0.00,VWS V14.00,2013-03-18 21:15:00,
2013-03-18 16:25:00,158.0,0.0,29.78,SSE,154,13.0,15.0,0,0.00,,---,0.00,VWS V14.00,2013-03-18 21:25:00,
2013-03-18 16:35:00,158.0,0.0,29.77,SSE,157,13.0,14.0,0,0.00,,---,0.00,VWS V14.00,2013-03-18 21:35:00,
2013-03-18 16:45:00,158.0,0.0,29.76,SSE,159,11.0,14.0,0,0.00,,---,0.00,VWS V14.00,2013-03-18 21:45:00,
2013-03-18 16:55:00,158.0,0.0,29.76,SSE,161,11.0,13.0,0,0.00,,---,0.00,VWS V14.00,2013-03-18 21:55:00,
2013-03-18 17:05:00,158.0,0.0,29.76,SSE,152,12.0,14.0,0,0.00,,---,0.00,VWS V14.00,2013-03-18 22:05:00,
2013-03-18 17:15:00,158.0,0.0,29.75,SSE,159,11.0,14.0,0,0.00,,---,0.00,VWS V14.00,2013-03-18 22:15:00,
2013-03-18 17:25:00,158.0,0.0,29.75,SSE,167,9.0,11.0,0,0.00,,---,0.00,VWS V14.00,2013-03-18 22:25:00,
2013-03-18 17:35:00,158.0,0.0,29.76,South,175,12.0,13.0,0,0.00,,---,0.00,VWS V14.00,2013-03-18 22:35:00,
2013-03-18 17:45:00,158.0,0.0,29.76,SSE,161,12.0,13.0,0,0.00,,---,0.00,VWS V14.00,2013-03-18 22:45:00,
2013-03-18 17:55:00,158.0,0.0,29.77,SSE,162,11.0,13.0,0,0.00,,---,0.00,VWS V14.00,2013-03-18 22:55:00,
2013-03-18 18:05:00,158.0,0.0,29.77,SSE,156,12.0,13.0,0,0.00,,---,0.00,VWS V14.00,2013-03-18 23:05:00,
2013-03-18 18:15:00,158.0,0.0,29.77,SSE,152,9.0,14.0,0,0.00,,---,0.00,VWS V14.00,2013-03-18 23:15:00,
2013-03-18 18:25:00,158.0,0.0,29.77,SSE,155,7.0,11.0,0,0.00,,---,0.00,VWS V14.00,2013-03-18 23:25:00,
2013-03-18 18:35:00,158.0,0.0,29.78,SSE,156,5.0,7.0,0,0.00,,---,0.00,VWS V14.00,2013-03-18 23:35:00,
2013-03-18 18:45:00,158.0,0.0,29.78,SSE,156,6.0,6.0,0,0.00,,---,0.00,VWS V14.00,2013-03-18 23:45:00,
2013-03-18 18:55:00,158.0,0.0,29.78,SSE,156,5.0,8.0,0,0.00,,---,0.00,VWS V14.00,2013-03-18 23:55:00,
2013-03-18 19:05:00,158.0,0.0,29.78,SSE,163,7.0,7.0,0,0.00,,---,0.00,VWS V14.00,2013-03-19 00:05:00,
2013-03-18 19:15:00,158.0,0.0,29.79,SSE,163,4.0,7.0,0,0.00,,---,0.00,VWS V14.00,2013-03-19 00:15:00,
2013-03-18 19:25:00,158.0,0.0,29.78,SSE,154,5.0,5.0,0,0.00,,---,0.00,VWS V14.00,2013-03-19 00:25:00,
2013-03-18 19:35:00,158.0,0.0,29.80,SSE,154,0.0,5.0,0,0.00,,---,0.00,VWS V14.00,2013-03-19 00:35:00,
2013-03-18 19:45:00,158.0,0.0,29.80,SSE,150,4.0,5.0,0,0.00,,---,0.00,VWS V14.00,2013-03-19 00:45:00,
2013-03-18 19:55:00,158.0,0.0,29.80,SSE,151,3.0,4.0,0,0.00,,---,0.00,VWS V14.00,2013-03-19 00:55:00,
2013-03-18 20:05:00,158.0,0.0,29.80,SSE,148,4.0,5.0,0,0.00,,---,0.00,VWS V14.00,2013-03-19 01:05:00,
2013-03-18 20:15:00,158.0,0.0,29.80,SSE,148,3.0,4.0,0,0.00,,---,0.00,VWS V14.00,2013-03-19 01:15:00,
2013-03-18 20:25:00,158.0,0.0,29.81,SSE,147,3.0,4.0,0,0.00,,---,0.00,VWS V14.00,2013-03-19 01:25:00,
2013-03-18 20:35:00,158.0,0.0,29.81,SSE,147,3.0,4.0,0,0.00,,---,0.00,VWS V14.00,2013-03-19 01:35:00,
2013-03-18 20:45:00,158.0,0.0,29.82,SSE,147,0.0,4.0,0,0.00,,---,0.00,VWS V14.00,2013-03-19 01:45:00,
2013-03-18 20:55:00,158.0,0.0,29.82,SSE,147,0.0,0.0,0,0.00,,---,0.00,VWS V14.00,2013-03-19 01:55:00,
2013-03-18 21:05:00,158.0,0.0,29.82,SSE,147,0.0,0.0,0,0.00,,---,0.00,VWS V14.00,2013-03-19 02:05:00,
2013-03-18 21:15:00,158.0,0.0,29.82,SSE,147,0.0,0.0,0,0.00,,---,0.00,VWS V14.00,2013-03-19 02:15:00,
2013-03-18 21:25:00,158.0,0.0,29.82,SSE,147,6.0,6.0,0,0.00,,---,0.00,VWS V14.00,2013-03-19 02:25:00,
2013-03-18 21:35:00,158.0,0.0,29.82,SE,146,6.0,9.0,0,0.00,,---,0.00,VWS V14.00,2013-03-19 02:35:00,
2013-03-18 21:45:00,158.0,0.0,29.81,SSE,159,9.0,12.0,0,0.00,,---,0.00,VWS V14.00,2013-03-19 02:45:00,
2013-03-18 21:55:00,158.0,0.0,29.81,SSE,150,7.0,10.0,0,0.00,,---,0.00,VWS V14.00,2013-03-19 02:55:00,
2013-03-18 22:05:00,158.0,0.0,29.82,SSE,150,7.0,9.0,0,0.00,,---,0.00,VWS V14.00,2013-03-19 03:05:00,
2013-03-18 22:15:00,158.0,0.0,29.82,SE,142,3.0,8.0,0,0.00,,---,0.00,VWS V14.00,2013-03-19 03:15:00,
2013-03-18 22:25:00,158.0,0.0,29.81,SE,136,10.0,11.0,0,0.00,,---,0.00,VWS V14.00,2013-03-19 03:25:00,
2013-03-18 22:35:00,158.0,0.0,29.83,SSE,160,4.0,10.0,0,0.00,,---,0.00,VWS V14.00,2013-03-19 03:35:00,
2013-03-18 22:45:00,158.0,0.0,29.82,SSE,161,6.0,9.0,0,0.00,,---,0.00,VWS V14.00,2013-03-19 03:45:00,
2013-03-18 22:55:00,158.0,0.0,29.82,SSE,153,5.0,9.0,0,0.00,,---,0.00,VWS V14.00,2013-03-19 03:55:00,
2013-03-18 23:05:00,158.0,0.0,29.83,SSE,162,5.0,7.0,0,0.00,,---,0.00,VWS V14.00,2013-03-19 04:05:00,
2013-03-18 23:15:00,158.0,0.0,29.84,SSE,162,3.0,5.0,0,0.00,,---,0.00,VWS V14.00,2013-03-19 04:15:00,
2013-03-18 23:25:00,158.0,0.0,29.85,South,175,2.0,5.0,0,0.00,,---,0.00,VWS V14.00,2013-03-19 04:25:00,
2013-03-18 23:35:00,158.0,0.0,29.85,NW,312,6.0,7.0,0,0.00,,---,0.00,VWS V14.00,2013-03-19 04:35:00,
2013-03-18 23:45:00,158.0,0.0,29.85,NW,319,3.0,7.0,0,0.00,,---,0.00,VWS V14.00,2013-03-19 04:45:00,
2013-03-18 23:55:00,158.0,0.0,29.84,ENE,67,4.0,5.0,0,0.00,,---,0.00,VWS V14.00,2013-03-19 04:55:00,